This is the latest recevied weather packets stored in our database for station/object K5YNC. If no packets are shown the sender has not sent any weather packets the latest 10 day(s).
| Time | Temp. | Humidity | Pressure | Rain* | Wind** | Luminosity | Snow |
|---|---|---|---|---|---|---|---|
| 1777580886 | 17.78° C | 73% | 1016.1 hPa | 0 mm | - | 170 W/m² | - |
| 1777580580 | 17.78° C | 73% | 1016.2 hPa | 0 mm | - | 193 W/m² | - |
| 1777580276 | 17.22° C | 74% | 1016.2 hPa | 0 mm | - | 185 W/m² | - |
| 1777579974 | 17.22° C | 73% | 1016.3 hPa | 0 mm | - | 229 W/m² | - |
| 1777579669 | 17.78° C | 73% | 1016.2 hPa | 0 mm | - | 174 W/m² | - |
| 1777579368 | 17.78° C | 74% | 1016.3 hPa | 0 mm | - | 194 W/m² | - |
| 1777579063 | 17.78° C | 72% | 1016.7 hPa | 0 mm | - | 191 W/m² | - |
| 1777578759 | 17.78° C | 73% | 1016.5 hPa | 0 mm | - | 254 W/m² | - |
| 1777578458 | 17.22° C | 74% | 1016.6 hPa | 0 mm | - | 250 W/m² | - |
| 1777578154 | 17.22° C | 74% | 1016.7 hPa | 0 mm | - | 200 W/m² | - |
| 1777577850 | 17.22° C | 74% | 1016.8 hPa | 0 mm | - | 150 W/m² | - |
| 1777577546 | 17.22° C | 74% | 1016.9 hPa | 0 mm | - | 154 W/m² | - |
| 1777577243 | 17.22° C | 73% | 1016.6 hPa | 0 mm | - | 200 W/m² | - |
| 1777576939 | 17.22° C | 74% | 1016.5 hPa | 0 mm | - | 301 W/m² | - |
| 1777576635 | 17.78° C | 74% | 1016.8 hPa | 0 mm | - | 229 W/m² | - |
| 1777576330 | 17.22° C | 74% | 1016.9 hPa | 0 mm | - | 247 W/m² | - |
| 1777576026 | 17.78° C | 74% | 1016.7 hPa | 0 mm | - | 218 W/m² | - |
| 1777575722 | 17.22° C | 74% | 1016.8 hPa | 0 mm | - | 249 W/m² | - |
| 1777575418 | 17.22° C | 74% | 1016.8 hPa | 0 mm | - | 258 W/m² | - |
| 1777575114 | 17.22° C | 74% | 1016.8 hPa | 0 mm | - | 299 W/m² | - |
| 1777574810 | 17.78° C | 73% | 1017.2 hPa | 0 mm | - | 270 W/m² | - |
| 1777574508 | 17.78° C | 74% | 1017.1 hPa | 0 mm | - | 276 W/m² | - |
| 1777574204 | 17.22° C | 75% | 1017.1 hPa | 0 mm | - | 290 W/m² | - |
| 1777573899 | 16.67° C | 75% | 1017.1 hPa | 0 mm | - | 299 W/m² | - |
| 1777573599 | 17.22° C | 75% | 1017.4 hPa | 0 mm | - | 308 W/m² | - |
* Rain latest hour (hover to see other rain measurements)
** Current wind speed in m/s (hover to see current wind gust speed)